Погода в Юште

Россия / Рязанская область     54°23′01″N   40°50′08″E
темп.,
°C
ветер,
м/с
пор.,
м/с
влажн.,
%
обл.,
%
осадки,
мм/ч
давл.,
гПа
погр.,
м
9 марта, вт
вт900:00−14сз23939 0.0 100820
03:00−16сз33954 0.0 101022
06:00−17сз349756 0.0 101261
09:00−14ссз369573 0.1 1013264
12:00−10ссз458698 0.0 1014666
15:00−9сз468499 0.1 1015897
18:00−12сз3592100 0.1 101691
21:00−15ссз3696100 0.2 1019140
10 марта, ср
ср1000:00−19ссз349766 0.0 102054
03:00−22сз349835 0.0 102179
06:00−25сз369767 0.0 102392
09:00−22ссз479447 0.0 1025265
12:00−17ссз458668 0.0 1026563
15:00−15ссз468584 0.0 1026733
18:00−19с3492100 0.0 102751
21:00−23ссз339469 0.0 102925
11 марта, чт
чт1100:00−24ссз23950 0.0 103020
03:00−25сз23940 0.0 103220
06:00−25зсз23920 0.0 103220
09:00−21зсз24920 0.0 1033152
12:00−14зсз35820 0.0 1033423
15:00−11зсз358524 0.0 1032533
18:00−15з349284 0.0 103257
21:00−18з339050 0.0 103324
12 марта, пт
пт1200:00−20з23900 0.0 103320
03:00−21зюз23880 0.0 103320
06:00−22юз23830 0.0 103420
09:00−18ююз35780 0.0 1033146
12:00−12ю36800 0.0 1033324
15:00−10ю58790 0.0 1032450
18:00−14ю48880 0.0 1030157
21:00−16ю511830 0.0 1030199
13 марта, сб
сб1300:00−15ю5118661 0.0 1029244
03:00−15ю6138981 0.0 1028290
06:00−14ю61587100 0.0 1027347
09:00−10ю81482100 0.0 1025615
12:00−7ю91481100 0.0 1024871
15:00−6ю91488100 0.6 10231030
18:00−6ю71393100 0.3 1022780
21:00−5ююз71392100 0.7 1021613